Weather History for KCCY - May, 2014

Change the Weather History Date:

Monday, May 19, 2014

  Actual Average Record
Temperature  
Mean Temperature 60 °F -  
Max Temperature 69 °F 73 °F 92 °F (1975)
Min Temperature 51 °F 49 °F 35 °F (2002)
Degree Days  
Heating Degree Days 5    
Growing Degree Days 10 (Base 50)    
Moisture  
Dew Point 50 °F    
Average Humidity 69    
Maximum Humidity 88    
Minimum Humidity 48    
Precipitation  
Precipitation 0.02 in - - ()
Sea Level Pressure  
Sea Level Pressure 29.90 in    
Wind  
Wind Speed 16 mph (SE)    
Max Wind Speed 30 mph    
Max Gust Speed 44 mph    
Visibility 10 miles    
Events      
Averages and records for this station are not official NWS values.
T = Trace of Precipitation, MM = Missing Value Source: NWS Daily Summary

Daily Weather History Graph

Daily Weather History Graph

Search for Another Location

Airport or City:

Trip Planner

Search our weather history database for the weather conditions in past years. The results will help you decide how hot, cold, wet, or windy it might be!

Date:

Astronomy

May. 19, 2014 Rise Set
Actual Time 5:43 AM CDT 8:31 PM CDT
Civil Twilight 5:09 AM CDT 9:04 PM CDT
Nautical Twilight 4:28 AM CDT 9:46 PM CDT
Astronomical Twilight 3:39 AM CDT 10:35 PM CDT
Moon 12:17 AM CDT (5/19) 10:43 AM CDT (5/19)
Length of Visible Light 15h 54m
Length of Day
14h 48m
Waning Gibbous, 71% of the Moon is Illuminated
May 19
Waning Gibbous
May 21
Last Quarter
May 28
New
Jun 5
First Quarter
Jun 12
Full

Hourly Weather History & Observations

Time (CDT) Temp. Dew Point Humidity Pressure Visibility Wind Dir Wind Speed Gust Speed Precip Events Conditions
12:15 AM 59.0 °F 39.2 °F 48% 30.07 in 10.0 mi SSE 12.7 mph - N/A   Overcast
12:35 AM 57.2 °F 41.0 °F 55% 30.08 in 10.0 mi South 12.7 mph - N/A   Mostly Cloudy
1:15 AM 57.2 °F 41.0 °F 55% 30.07 in 10.0 mi SSE 15.0 mph 21.9 mph N/A   Overcast
1:35 AM 57.2 °F 41.0 °F 55% 30.07 in 10.0 mi SSE 15.0 mph 23.0 mph N/A   Overcast
1:55 AM 57.2 °F 41.0 °F 55% 30.07 in 10.0 mi SSE 15.0 mph 23.0 mph N/A   Overcast
2:15 AM 57.2 °F 41.0 °F 55% 30.07 in 10.0 mi SSE 15.0 mph 23.0 mph N/A   Overcast
2:35 AM 53.6 °F 44.6 °F 72% 30.08 in 5.0 mi SSE 15.0 mph - N/A   Haze
2:55 AM 51.8 °F 44.6 °F 76% 30.07 in 9.0 mi SSE 12.7 mph - N/A   Overcast
3:15 AM 53.6 °F 44.6 °F 72% 30.07 in 8.0 mi SSE 15.0 mph - N/A   Overcast
3:35 AM 51.8 °F 44.6 °F 76% 30.07 in 10.0 mi SE 12.7 mph - N/A   Overcast
3:55 AM 51.8 °F 44.6 °F 76% 30.07 in 10.0 mi SSE 15.0 mph - N/A   Overcast
4:35 AM 53.6 °F 44.6 °F 72% 30.05 in 10.0 mi SE 16.1 mph - N/A   Overcast
4:55 AM 53.6 °F 44.6 °F 72% 30.05 in 10.0 mi SE 17.3 mph 23.0 mph N/A   Overcast
5:15 AM 53.6 °F 44.6 °F 72% 30.04 in 10.0 mi SE 17.3 mph 23.0 mph N/A   Overcast
5:35 AM 51.8 °F 44.6 °F 76% 30.03 in 9.0 mi SSE 17.3 mph - N/A   Overcast
5:55 AM 51.8 °F 44.6 °F 76% 30.03 in 10.0 mi SE 18.4 mph 24.2 mph N/A   Overcast
6:15 AM 51.8 °F 44.6 °F 76% 30.02 in 10.0 mi SE 18.4 mph 24.2 mph N/A   Overcast
6:35 AM 51.8 °F 44.6 °F 76% 30.02 in 10.0 mi SE 18.4 mph 24.2 mph N/A   Overcast
6:55 AM 53.6 °F 44.6 °F 72% 30.01 in 10.0 mi SE 17.3 mph 26.5 mph N/A   Overcast
7:15 AM 51.8 °F 44.6 °F 76% 30.01 in 10.0 mi SE 17.3 mph 25.3 mph N/A   Overcast
7:35 AM 51.8 °F 44.6 °F 76% 30.00 in 9.0 mi SE 20.7 mph - N/A   Overcast
8:35 AM 51.8 °F 46.4 °F 82% 29.97 in 10.0 mi SE 23.0 mph - N/A   Overcast
8:55 AM 53.6 °F 46.4 °F 77% 29.97 in 10.0 mi SSE 18.4 mph 28.8 mph N/A   Overcast
9:35 AM 53.6 °F 46.4 °F 77% 29.94 in 10.0 mi SE 19.6 mph 27.6 mph N/A   Overcast
9:55 AM 55.4 °F 46.4 °F 72% 29.94 in 10.0 mi SSE 18.4 mph 26.5 mph N/A   Overcast
10:15 AM 55.4 °F 48.2 °F 77% 29.93 in 10.0 mi SSE 19.6 mph 29.9 mph N/A   Overcast
10:35 AM 57.2 °F 48.2 °F 72% 29.92 in 10.0 mi SSE 25.3 mph 31.1 mph N/A   Mostly Cloudy
10:55 AM 57.2 °F 46.4 °F 67% 29.93 in 10.0 mi SSE 18.4 mph 29.9 mph N/A   Overcast
11:15 AM 57.2 °F 48.2 °F 72% 29.90 in 9.0 mi SSE 23.0 mph 32.2 mph N/A   Overcast
11:35 AM 55.4 °F 48.2 °F 77% 29.90 in 7.0 mi SSE 23.0 mph 32.2 mph N/A   Mostly Cloudy
11:55 AM 55.4 °F 48.2 °F 77% 29.86 in 8.0 mi SSE 27.6 mph - 0.02 in   Scattered Clouds
12:15 PM 57.2 °F 48.2 °F 72% 29.87 in 10.0 mi SSE 24.2 mph 31.1 mph N/A   Mostly Cloudy
12:35 PM 59.0 °F 50.0 °F 72% 29.86 in 10.0 mi SSE 25.3 mph 36.8 mph N/A   Scattered Clouds
12:55 PM 59.0 °F 48.2 °F 67% 29.83 in 10.0 mi SE 28.8 mph 35.7 mph N/A   Clear
1:15 PM 60.8 °F 48.2 °F 63% 29.82 in 10.0 mi SE 29.9 mph 43.7 mph N/A   Clear
1:35 PM 62.6 °F 48.2 °F 59% 29.80 in 10.0 mi SE 23.0 mph 35.7 mph N/A   Clear
1:55 PM 64.4 °F 50.0 °F 59% 29.78 in 10.0 mi SSE 27.6 mph 34.5 mph N/A   Clear
2:15 PM 62.6 °F 48.2 °F 59% 29.82 in 10.0 mi SSE 24.2 mph 36.8 mph N/A   Partly Cloudy
2:35 PM 64.4 °F 50.0 °F 59% 29.82 in 10.0 mi SSE 23.0 mph 32.2 mph N/A   Mostly Cloudy
2:55 PM 66.2 °F 51.8 °F 60% 29.81 in 10.0 mi SSE 20.7 mph 27.6 mph N/A   Mostly Cloudy
3:15 PM 69.8 °F 51.8 °F 53% 29.80 in 10.0 mi SSE 23.0 mph - N/A   Mostly Cloudy
3:35 PM 69.8 °F 51.8 °F 53% 29.80 in 10.0 mi SSE 19.6 mph 32.2 mph N/A   Scattered Clouds
3:55 PM 69.8 °F 51.8 °F 53% 29.80 in 10.0 mi SSE 19.6 mph - N/A   Mostly Cloudy
4:15 PM 69.8 °F 51.8 °F 53% 29.79 in 10.0 mi SSE 16.1 mph 24.2 mph N/A   Overcast
4:35 PM 69.8 °F 53.6 °F 56% 29.78 in 10.0 mi SSE 15.0 mph 20.7 mph N/A   Overcast
4:55 PM 69.8 °F 53.6 °F 56% 29.79 in 10.0 mi SSE 10.4 mph 16.1 mph N/A   Overcast
5:15 PM 68.0 °F 55.4 °F 64% 29.78 in 10.0 mi SSE 9.2 mph 16.1 mph N/A   Overcast
5:55 PM 69.8 °F 55.4 °F 60% 29.77 in 10.0 mi SSE 13.8 mph - N/A   Overcast
6:15 PM 69.8 °F 55.4 °F 60% 29.77 in 10.0 mi South 12.7 mph - N/A   Overcast
6:35 PM 69.8 °F 57.2 °F 64% 29.77 in 10.0 mi South 12.7 mph - N/A   Overcast
6:55 PM 69.8 °F 57.2 °F 64% 29.78 in 10.0 mi South 16.1 mph - N/A   Overcast
7:15 PM 68.0 °F 57.2 °F 68% 29.78 in 9.0 mi South 11.5 mph - N/A   Overcast
7:35 PM 68.0 °F 57.2 °F 68% 29.79 in 10.0 mi South 9.2 mph - N/A   Overcast
7:55 PM 68.0 °F 57.2 °F 68% 29.80 in 10.0 mi South 6.9 mph - N/A   Overcast
8:15 PM 66.2 °F 57.2 °F 73% 29.80 in 10.0 mi East 6.9 mph - N/A   Overcast
8:35 PM 66.2 °F 57.2 °F 73% 29.79 in 10.0 mi ESE 8.1 mph - N/A   Overcast
8:55 PM 64.4 °F 57.2 °F 77% 29.79 in 10.0 mi ESE 6.9 mph - N/A   Overcast
9:15 PM 64.4 °F 57.2 °F 77% 29.79 in 10.0 mi East 8.1 mph - N/A   Overcast
9:35 PM 64.4 °F 57.2 °F 77% 29.80 in 10.0 mi ENE 9.2 mph - N/A   Overcast
9:55 PM 64.4 °F 57.2 °F 77% 29.80 in 10.0 mi NE 8.1 mph - N/A   Overcast
10:15 PM 60.8 °F 57.2 °F 88% 29.80 in 10.0 mi ENE 8.1 mph - N/A   Overcast
10:35 PM 60.8 °F 57.2 °F 88% 29.80 in 10.0 mi East 8.1 mph - N/A   Overcast
10:55 PM 60.8 °F 57.2 °F 88% 29.80 in 10.0 mi East 8.1 mph - N/A   Overcast
11:15 PM 60.8 °F 57.2 °F 88% 29.80 in 10.0 mi East 8.1 mph - N/A   Overcast
11:35 PM 60.8 °F 57.2 °F 88% 29.79 in - ESE 6.9 mph - N/A   Overcast
11:55 PM 60.8 °F 57.2 °F 88% 29.78 in 10.0 mi ESE 8.1 mph - N/A   Overcast